Simultaneous Nadir Overpasses (SNOs) Predictions

Prediction of SNOs between GOES-14 and NPP Satellite Orbit:

Table of predicted SNOs for the next 14.0 days since TLE Epoch: 8/14/2020
Index Date Time (GOES-14) GOES-14 Lat,Lon NPP Lat,Lon Distance(km) Time Diff (sec)
1 08/15/2020 08:26:41 -0.45,-104.46 -0.29,-105.10 74.35 80
2 08/16/2020 08:05:17 -0.44,-104.45 -1.28,-100.57 442.04 80
3 08/17/2020 20:27:15 0.46,-104.64 0.16,-105.89 143.34 80
4 08/18/2020 20:11:12 0.45,-104.65 1.21,-101.37 374.03 80
5 08/20/2020 08:32:59 -0.47,-104.49 0.02,-106.63 244.50 80
6 08/21/2020 08:11:35 -0.46,-104.48 -0.98,-102.09 271.90 80
7 08/22/2020 20:33:33 0.48,-104.65 -0.14,-107.41 315.03 80
8 08/23/2020 20:17:28 0.47,-104.66 0.85,-102.88 202.46 80
9 08/25/2020 08:39:17 -0.49,-104.52 0.32,-108.15 414.00 80
10 08/26/2020 08:17:52 -0.49,-104.51 -0.67,-103.62 102.06 80
11 08/27/2020 20:39:50 0.50,-104.66 -0.44,-108.94 487.20 80
